Retour au catalogue

ONEWEB-0548

ActifCommunicationsPO
NORAD 56050·PAYLOAD·🇬🇧 United Kingdom

Lancé Mar 26, 2023 depuis Satish Dhawan Space Centre

Loading…

Prochains Passages (prochaines 24 heures)

TLE

FraisSource: CelesTrak SupGP

Époque: Sep 14, 2026, 23:16 UTC

1 56050C 23043E   26257.96963377 -.00002752  00000+0 -72069-2 0  2570
2 56050  87.9146 210.9417 0002470  85.3347 355.7960 13.16594523    15

Suivez ONEWEB-0548 en temps réel avec AllMySat

Download on the App Store